Fort Campbell, TN

7:44 AM CDT on August 25, 2016 (GMT -0500)
Outlaw

Weather History for KCKV - November, 2010

Change the Weather History Date:

Sunday, November 28, 2010

  Actual Average Record
Temperature  
Mean Temperature 39 °F -  
Max Temperature 53 °F - 74 °F (1949)
Min Temperature 24 °F - 14 °F (1955)
Degree Days  
Heating Degree Days 26    
Month to date heating degree days 446  
Since 1 July heating degree days 622  
Cooling Degree Days 0    
Month to date cooling degree days 3  
Year to date cooling degree days 1953  
Moisture  
Dew Point 28 °F    
Average Humidity 65    
Maximum Humidity 92    
Minimum Humidity 38    
Precipitation  
Precipitation 0.00 in - 3.83 in (1968)
Month to date precipitation 5.14  
Year to date precipitation 36.93  
Sea Level Pressure  
Sea Level Pressure 30.21 in    
Wind  
Wind Speed 4 mph (SE)    
Max Wind Speed 10 mph    
Max Gust Speed 15 mph    
Visibility 8 miles    
Events      
T = Trace of Precipitation, MM = Missing Value Source: NWS Daily Summary

Daily Weather History Graph

Daily Weather History Graph

Search for Another Location

Airport or City:

Trip Planner

Search our weather history database for the weather conditions in past years. The results will help you decide how hot, cold, wet, or windy it might be!

Date:

Astronomy

Nov. 28, 2010 Rise Set
Actual Time 6:40 AM CST 4:34 PM CST
Civil Twilight 6:12 AM CST 5:02 PM CST
Nautical Twilight 5:40 AM CST 5:34 PM CST
Astronomical Twilight 5:09 AM CST 6:05 PM CST
Moon 11:57 PM CST (11/28) 11:55 AM CST (11/28)
Length of Visible Light 10h 50m
Length of Day
9h 54m
Waning Gibbous, 51% of the Moon is Illuminated
Nov 28
Waning Gibbous
Nov 28
Last Quarter
Dec 5
New
Dec 13
First Quarter
Dec 21
Full

Hourly Weather History & Observations

Time (CST) Temp. Windchill Dew Point Humidity Pressure Visibility Wind Dir Wind Speed Gust Speed Precip Events Conditions
12:52 AM 28.0 °F - 25.0 °F 88% 30.25 in 8.0 mi Calm Calm - N/A   Clear
1:52 AM 28.0 °F - 25.0 °F 88% 30.25 in 6.0 mi Calm Calm - N/A   Clear
2:52 AM 26.1 °F 20.5 °F 24.1 °F 92% 30.25 in 5.0 mi ENE 4.6 mph - N/A   Clear
3:52 AM 28.0 °F - 26.1 °F 92% 30.25 in 6.0 mi Calm Calm - N/A   Clear
4:52 AM 26.1 °F - 24.1 °F 92% 30.26 in 6.0 mi Calm Calm - N/A   Clear
6:49 AM 24.8 °F - 23.0 °F 93% 30.26 in 2.5 mi Calm Calm - N/A   Clear
6:52 AM 25.0 °F - 23.0 °F 92% 30.28 in 2.5 mi Calm Calm - N/A   Clear
7:18 AM 26.6 °F - 24.8 °F 93% 30.26 in 3.0 mi Calm Calm - N/A   Clear
7:52 AM 30.0 °F - 28.0 °F 92% 30.29 in 3.0 mi Calm Calm - N/A   Clear
8:52 AM 34.0 °F - 30.0 °F 85% 30.30 in 6.0 mi Calm Calm - N/A   Clear
9:52 AM 41.0 °F 37.1 °F 32.0 °F 70% 30.30 in 10.0 mi ESE 5.8 mph - N/A   Clear
10:52 AM 45.0 °F 41.2 °F 30.0 °F 56% 30.26 in 10.0 mi South 6.9 mph - N/A   Clear
11:52 AM 48.0 °F - 30.9 °F 52% 30.23 in 10.0 mi South 8.1 mph - N/A   Clear
12:52 PM 51.1 °F - 30.0 °F 44% 30.20 in 10.0 mi ESE 6.9 mph - N/A   Clear
1:52 PM 52.0 °F - 28.9 °F 41% 30.17 in 10.0 mi Variable 4.6 mph - N/A   Clear
2:52 PM 53.1 °F - 28.9 °F 40% 30.15 in 10.0 mi SE 9.2 mph - N/A   Clear
3:52 PM 51.1 °F - 28.0 °F 41% 30.16 in 10.0 mi SE 6.9 mph - N/A   Clear
4:52 PM 48.0 °F - 28.0 °F 46% 30.15 in 10.0 mi ESE 5.8 mph - N/A   Clear
5:52 PM 44.1 °F 40.1 °F 30.0 °F 58% 30.13 in 10.0 mi ESE 6.9 mph - N/A   Clear
6:52 PM 43.0 °F 38.8 °F 30.9 °F 62% 30.13 in 10.0 mi ESE 6.9 mph - N/A   Clear
7:52 PM 41.0 °F 37.1 °F 30.0 °F 65% 30.12 in 10.0 mi ESE 5.8 mph - N/A   Clear
8:52 PM 39.9 °F 35.8 °F 30.0 °F 68% 30.12 in 10.0 mi ESE 5.8 mph - N/A   Clear
9:52 PM 39.0 °F 34.8 °F 28.9 °F 67% 30.12 in 10.0 mi SSE 5.8 mph - N/A   Clear
10:52 PM 39.9 °F 35.1 °F 30.0 °F 68% 30.12 in 10.0 mi SSE 6.9 mph - N/A   Clear
11:52 PM 41.0 °F 36.4 °F 30.0 °F 65% 30.13 in 10.0 mi SSE 6.9 mph - N/A   Clear